This is the latest recevied weather packets stored in our database for station/object K4KMJ. If no packets are shown the sender has not sent any weather packets the latest 10 day(s).
| Time | Temp. | Humidity | Pressure | Rain* | Wind** | Luminosity | Snow |
|---|---|---|---|---|---|---|---|
| 1777807299 | 17.22° C | 99% | 1018.3 hPa | 0 mm | - | 26 W/m² | - |
| 1777806995 | 16.67° C | 99% | 1018.1 hPa | 0 mm | - | 21 W/m² | - |
| 1777806692 | 16.67° C | 99% | 1018.2 hPa | 0 mm | - | 20 W/m² | - |
| 1777806387 | 16.67° C | 99% | 1017.8 hPa | 0 mm | - | 12 W/m² | - |
| 1777806084 | 16.67° C | 99% | 1018.1 hPa | 0 mm | - | 8 W/m² | - |
| 1777805781 | 17.22° C | 99% | 1018.3 hPa | 0 mm | - | 6 W/m² | - |
| 1777805478 | 16.67° C | 99% | 1017.9 hPa | 0 mm | - | 3 W/m² | - |
| 1777805176 | 17.22° C | 99% | 1018 hPa | 0 mm | - | 2 W/m² | - |
| 1777804874 | 16.67° C | 99% | 1017.8 hPa | 0 mm | - | 1 W/m² | - |
| 1777804571 | 16.67° C | 99% | 1017.7 hPa | 0 mm | - | 1 W/m² | - |
| 1777804269 | 17.22° C | 99% | 1017.8 hPa | 0 mm | - | 0 W/m² | - |
| 1777803966 | 17.22° C | 99% | 1017.7 hPa | 0 mm | - | 0 W/m² | - |
| 1777803662 | 17.22° C | 99% | 1017.6 hPa | 0 mm | - | 0 W/m² | - |
| 1777803358 | 17.22° C | 99% | 1017.6 hPa | 0 mm | - | 0 W/m² | - |
| 1777803056 | 17.22° C | 99% | 1017.5 hPa | 0 mm | - | 0 W/m² | - |
| 1777802753 | 17.22° C | 99% | 1017.5 hPa | 0 mm | - | 0 W/m² | - |
| 1777802451 | 17.22° C | 99% | 1017.3 hPa | 0 mm | - | 0 W/m² | - |
| 1777802149 | 17.22° C | 99% | 1017.5 hPa | 0 mm | - | 0 W/m² | - |
| 1777801847 | 17.22° C | 99% | 1017.5 hPa | 0 mm | - | 0 W/m² | - |
| 1777801543 | 17.22° C | 99% | 1017.6 hPa | 0 mm | - | 0 W/m² | - |
| 1777801239 | 17.22° C | 99% | 1017.3 hPa | 0 mm | - | 0 W/m² | - |
| 1777800937 | 17.22° C | 99% | 1017.5 hPa | 0 mm | - | 0 W/m² | - |
| 1777800634 | 17.22° C | 99% | 1017.3 hPa | 0 mm | - | 0 W/m² | - |
| 1777800329 | 17.78° C | 99% | 1017.5 hPa | 0 mm | - | 0 W/m² | - |
| 1777800026 | 17.78° C | 99% | 1017.3 hPa | 0 mm | - | 0 W/m² | - |
* Rain latest hour (hover to see other rain measurements)
** Current wind speed in m/s (hover to see current wind gust speed)